This is the latest recevied weather packets stored in our database for station/object XE2MDH-15. If no packets are shown the sender has not sent any weather packets the latest 1 day(s).
| Time | Temp. | Humidity | Pressure | Rain* | Wind** | Luminosity | Snow |
|---|---|---|---|---|---|---|---|
| 1777914441 | 35° C | 23% | 809.8 hPa | - | - | - | - |
| 1777913541 | 31.11° C | 23% | 809.8 hPa | - | - | - | - |
| 1777912929 | 33.89° C | 23% | 810.1 hPa | - | - | - | - |
| 1777912029 | 30.56° C | 23% | 810.1 hPa | - | - | - | - |
| 1777910927 | 32.22° C | 24% | 810.3 hPa | - | - | - | - |
| 1777910027 | 33.33° C | 25% | 810.4 hPa | - | - | - | - |
| 1777909127 | 28.89° C | 25% | 810.3 hPa | - | - | - | - |
| 1777906957 | 15.56° C | 21% | 810.2 hPa | - | - | - | - |
| 1777905756 | 13.89° C | 20% | 810.2 hPa | - | - | - | - |
| 1777904553 | 11.11° C | 19% | 810 hPa | - | - | - | - |
| 1777903192 | 8.33° C | 18% | 810 hPa | - | - | - | - |
| 1777901869 | 6.11° C | 18% | 809.8 hPa | - | - | - | - |
| 1777900227 | 3.89° C | 17% | 809.5 hPa | - | - | - | - |
| 1777885274 | 5.56° C | 14% | 809.2 hPa | - | - | - | - |
| 1777875234 | 12.78° C | 13% | 809.6 hPa | - | - | - | - |
| 1777872770 | 18.89° C | 14% | 809.9 hPa | - | - | - | - |
| 1777871870 | 19.44° C | 14% | 809.8 hPa | - | - | - | - |
| 1777870973 | 20.56° C | 14% | 809.8 hPa | - | - | - | - |
| 1777870073 | 21.11° C | 14% | 809.6 hPa | - | - | - | - |
| 1777869173 | 21.11° C | 14% | 809.7 hPa | - | - | - | - |
| 1777868272 | 22.22° C | 14% | 809.5 hPa | - | - | - | - |
| 1777867372 | 22.22° C | 14% | 809.4 hPa | - | - | - | - |
| 1777866472 | 22.22° C | 14% | 809.2 hPa | - | - | - | - |
| 1777865572 | 21.67° C | 14% | 808.8 hPa | - | - | - | - |
| 1777864672 | 22.22° C | 14% | 808.4 hPa | - | - | - | - |
* Rain since midnight (hover to see other rain measurements)
** Current wind speed in m/s (hover to see current wind gust speed)